User: anonymous   Login
Location: Brno
(49.2000°N, 16.6330°E)
Time: 09:48:55
(UTC+02:00)
Language:

RESURS DK-1 - Orbit

View from above orbital plane
View from above orbital plane
View from above satellite
View from above satellite

Ground track
Ground track

The orbit data is extracted from the following two-line orbital elements,

1 29228U 06021A   16152.18665797  .00000273  00000-0  28270-4 0  9991
2 29228  69.9381 349.7966 0007040 227.2737 132.7835 15.01910600550749
Epoch (UTC): 31 May 2016 04:28:47
Eccentricity: 0.0007040
inclination: 69.9381°
perigee height: 556 km
apogee height: 566 km
right ascension of ascending node: 349.7966°
argument of perigee: 227.2737°
revolutions per day: 15.01910600
mean anomaly at epoch: 132.7835°
orbit number at epoch: 55074

The dashed part of the orbit path shows where the satellite is in the earth's shadow,  

DLR